sat.trackr.live / text

‹ back to catalog

STARLINK-36334

NORAD 67471 · 2026-008AC

PAYLOAD ACTIVE UNKNOWN

§ Identity

Operator
Country
US
Launch date
2026-01-14
Launch site
AFETR
Launch vehicle
Mass (kg)
RCS (m²)

Purposes: comms

External: N2YO · Heavens-Above · Gunter

§ Orbital elements

Epoch: 2026-09-19T12:49:28.100928Z

Period
94.27 min
Inclination
43.0040°
Eccentricity
0.0001591
Mean motion
15.27593539 rev/d
Perigee alt
481.9 km
Apogee alt
484.1 km
Semi-major
6,861.1 km
B*
4.0944e-4
RAAN
190.8738°
Arg perigee
262.3681°
Mean anomaly
97.6990°
Rev number
3,921

§ Raw data

STARLINK-363341 67471U 26008AC  26262.53435302  .00011026  00000+0  40944-3 0  99972 67471  43.0040 190.8738 0001591 262.3681  97.6990 15.27593539 39212

JSON: /api/v1/satellites/67471 · /tle

For live sub-satellite position, see the globe view (requires WebGL).

§ Visibility from observer

Set your observer location to see the next 7 days of passes ≥ 10°. The values pass through the URL so the page stays shareable.

No JS? Fill the form by hand. The geolocation button needs JavaScript.